Location: Newark
(34.0000°S, 64.0000°W)
Time: 12:53:49
(UTC+00:00)

ISS - Visible Passes

Search period start: 10 December 2019 00:00
Search period end: 20 December 2019 00:00
Orbit: 411 x 421 km, 51.6° (Epoch: 10 December)

Date Brightness Start Highest point End Pass type
(mag) Time Alt. Az. Time Alt. Az. Time Alt. Az.
12 Dec -0.1 04:03:30 10° S 04:03:30 10° S 04:03:31 10° S visible
13 Dec -0.3 03:15:33 11° S 03:15:33 11° S 03:15:53 10° SSE visible
13 Dec -0.5 08:06:03 10° S 08:08:07 15° SSE 08:10:11 10° ESE visible
14 Dec -1.1 02:26:19 20° S 02:26:19 20° S 02:27:50 10° SSE visible
14 Dec 0.0 07:18:45 10° SSE 07:19:21 10° SSE 07:19:57 10° SE visible
14 Dec -2.0 23:57:59 10° NNE 23:59:51 14° NE 00:01:44 10° E visible
15 Dec -2.6 01:32:59 10° WNW 01:36:16 44° SW 01:39:36 10° SE visible
15 Dec -1.8 08:04:55 10° SSW 08:08:05 35° SE 08:11:13 10° ENE visible
16 Dec -3.7 00:44:19 10° NW 00:47:44 86° SW 00:51:10 10° SE visible
16 Dec -0.2 02:23:27 10° SW 02:24:55 12° SSW 02:26:23 10° S visible
16 Dec -0.9 07:16:43 10° SSW 07:19:26 21° SSE 07:22:07 10° E visible
16 Dec -3.5 23:55:57 10° NNW 23:59:13 46° NE 00:02:32 10° ESE visible
17 Dec -0.6 01:33:43 10° WSW 01:36:09 18° SSW 01:38:35 10° SSE visible
17 Dec -0.3 06:28:45 10° S 06:30:42 14° SSE 06:32:37 10° ESE visible
17 Dec -3.8 08:04:22 10° SW 08:07:46 70° NW 08:11:06 10° NE visible
18 Dec -1.4 00:44:27 10° W 00:47:26 28° SW 00:50:28 10° SSE visible
18 Dec -3.1 07:15:50 10° SW 07:19:13 59° SE 07:22:33 10° ENE visible
18 Dec -2.6 23:55:29 10° WNW 23:58:47 49° SW 00:02:09 10° SE visible
19 Dec -1.9 06:27:28 10° SSW 06:30:36 32° SE 06:33:41 10° ENE visible
19 Dec -2.4 08:04:37 10° W 08:07:09 20° NW 08:09:41 10° N visible
